ENTCENVA

Guest
Details From ENTC - Tromso Langnes
To ENVA - Vaernes
Flight Number -
Tags Generated
Created
Modified
Stats Distance 419 nm / 776 km
Max Altitude 0 ft / 0 m
Waypoints 3
Social Downloads 0
Likes 0
Share VATSIM

Download

Looking for another format? Having issues loading an existing format? Contact us
Advertisement - Login to hide

Notes

Generated

Route

ENTC TRM ENVA

ID Type Via Altitude Latitude Longitude Leg Dist Tot Dist Heading (true) Name
O ENTC APT - 0 ft / 0 m 69.67250˚ 18.91291˚ - 0 nm - -
TRM VOR - 0 ft / 0 m 63.52587˚ 10.89007˚ 415 nm 415 nm 211° / 204° TRONDHEIM VOR-DME
O ENVA APT - 0 ft / 0 m 63.46455˚ 10.92316˚ 3 nm 418 nm 166° / 166° Vaernes

Altitude Profile

Advertisement - Login to hide

Weather


0- 5 10 15 20 25 30 35+ Temperature / ° C

Clouds and Precipitation
Forecast for 2018-05-22 00:00 UTC. Updated 3 hours ago

Ground ~20,000 ft ~40,000 ft Winds

ENTC

Details ICAO ENTC (TOS)
Name Tromso Langnes
Region Norway
Timezone Europe/Oslo (UTC+2.0)
Stats Elevation 31 ft / 9 m (AMSL)
Location 69.682866° 18.919363°
Runways 1
Magnetic Variation 8.897° E

METAR

ENTC 220220Z 19011KT 9999 OVC080 08/03 Q1020 RMK WIND 2600FT 21015KT

Decode

TAF

TAF ENTC 212300Z 2200/2224 22015KT 9999 BKN025 TEMPO 2212/2224 28018KT

Decode

Departure Runways

ID Width Length Bearing (true) Bearing (mag) Surface Threshold Offset Overrun Length
01 141 ft / 43 m 7,740 ft / 2,359 m 12.19° 3.29° Asphalt 0 ft / 0 m 289 ft / 88 m
19 141 ft / 43 m 7,740 ft / 2,359 m 192.21° 183.31° Asphalt 1,227 ft / 374 m 482 ft / 147 m

ENVA

Details ICAO ENVA (TRD)
Name Vaernes
Region Norway
Timezone Europe/Oslo (UTC+2.0)
Stats Elevation 56 ft / 17 m (AMSL)
Location 63.457605° 10.917980°
Runways 1
Magnetic Variation 3.578° E

METAR

ENVA 220220Z 12005KT CAVOK 09/07 Q1021 RMK WIND 670FT VRB03KT

Decode

TAF

TAF ENVA 212300Z 2200/2224 VRB05KT CAVOK BECMG 2208/2210 27012KT BECMG 2216/2218 VRB05KT

Decode

Destination Runways

ID Width Length Bearing (true) Bearing (mag) Surface Threshold Offset Overrun Length
09 148 ft / 45 m 9,356 ft / 2,852 m 90.21° 86.63° Asphalt 984 ft / 300 m 0 ft / 0 m
27 148 ft / 45 m 9,356 ft / 2,852 m 270.26° 266.68° Asphalt 689 ft / 210 m 0 ft / 0 m

Approach Navaids

Runway Type Ident Frequency Range Bearing (true) Bearing (mag) Slope Elevation
09 Localiser TO 110.30 MHz 18 nm / 33 km 90.26° 86.68° - 31 ft / 9 m (AMSL)
09 Glidescope TO 110.30 MHz 10 nm / 19 km 90.23° 86.65° 3.00° 56 ft / 17 m (AMSL)
09 DME TO 110.30 MHz 18 nm / 33 km - - - 31 ft / 9 m (AMSL)
27 Localiser TD 109.90 MHz 18 nm / 33 km 270.20° 266.62° - 56 ft / 17 m (AMSL)
27 Glidescope TD 109.90 MHz 10 nm / 19 km 270.23° 266.65° 3.40° 56 ft / 17 m (AMSL)
27 DME TD 109.90 MHz 18 nm / 33 km - - - 78 ft / 24 m (AMSL)

Popular Alternatives